Regional Weather Roundup
Issued by NWS Sioux Falls, SD

Home | Current Version | Previous Version | Text Only | Print | Product List | Glossary On
Versions: 1 2 3 4 5 6 7 8 9 10 11 12 13 14 15 16 17 18 19 20 21 22 23 24 25 26 27 28 29 30 31 32 33 34 35 36 37 38 39 40 41 42 43 44 45 46 47 48 49 50
000
ASUS43 KFSD 191510
RWRFSD

WEATHER ROUNDUP FOR SE SOUTH DAKOTA/SW MINNESOTA/NW IOWA
NATIONAL WEATHER SERVICE SIOUX FALLS SD
1000 AM CDT SAT AUG 19 2017

NOTE: "FAIR" INDICATES FEW OR NO CLOUDS BELOW 12,000 FEET WITH NO
SIGNIFICANT WEATHER AND OR OBSTRUCTIONS TO VISIBILITY.


SDZ038>040-050-052>070-191600-
SOUTHEAST SOUTH DAKOTA

CITY           SKY/WX    TMP DP  RH WIND       PRES   REMARKS
BROOKINGS      SUNNY     64  61  90 S6        29.97F
CHAMBERLAIN    SUNNY     73  60  64 SE14      29.91F
HURON          SUNNY     68  61  78 MISG      29.92F
MADISON        FAIR      64  64 100 SE7       29.98S
MITCHELL       SUNNY     68  62  81 SE9       29.94F
SIOUX FALLS    FOG       63  62  97 E5        29.98S VSB 1/2
WINNER         FAIR      75  60  59 S15G22    29.89F
YANKTON        SUNNY     66  61  84 SE7       29.96F
$$

MNZ071-072-080-081-089-090-097-098-191600-
SOUTHWEST MINNESOTA

CITY           SKY/WX    TMP DP  RH WIND       PRES   REMARKS
FAIRMONT       SUNNY     66  61  84 S3        30.00R
JACKSON        SUNNY     63  63 100 CALM      30.00R
LUVERNE        FOG       59  57  94 CALM      29.99S VSB 1/4
MARSHALL       SUNNY     69  63  81 S6        29.97S
MONTEVIDEO     SUNNY     72  66  83 SW6       29.96S
PIPESTONE      MOSUNNY   63  61  94 SE3       29.98F FOG
REDWOOD FALLS  PTSUNNY   62  60  93 SW7       29.97S
TRACY          SUNNY     65  65 100 SW7       29.99R
WINDOM         SUNNY     64  63  94 SW6       30.00R
WORTHINGTON    SUNNY     65  62  90 S3        30.00S
$$

IAZ001>003-012>014-020>022-031-032-NEZ013-014-SDZ071-191600-
NORTHWEST IOWA

CITY           SKY/WX    TMP DP  RH WIND       PRES   REMARKS
CHEROKEE       CLOUDY    60  60 100 CALM      29.99S FOG
DENISON        SUNNY     68  63  83 E3        30.00R
ESTHERVILLE    SUNNY     66  62  87 S5        29.99R
LE MARS        FOG       61  61 100 CALM      29.99R VSB 1/4
ORANGE CITY    CLOUDY    63  63 100 CALM      29.99S FOG
SHELDON        FOG       59  59 100 CALM      29.98S VSB<1/4
SIOUX CITY     SUNNY     68  63  84 CALM      29.98S
SPENCER        MOSUNNY   64  60  87 CALM      30.00S
STORM LAKE     FOG       63  61  94 NE3       30.00S VSB 1/4
$$

ABBREVIATIONS USED IN REMARKS
   TC - TEMPERATURE IN CELSIUS
  WCI - WIND CHILL INDEX
   HX - HEAT INDEX
  VSB - VISIBILITY





USA.gov is the U.S. government's official web portal to all federal, state and local government web resources and services.